Regional Weather Roundup
Issued by NWS Kansas City/Pleasant Hill, MO

Home | Current Version | Previous Version | Graphics & Text | Print | Product List | Glossary Off
Versions: 1 2 3 4 5 6 7 8 9 10 11 12 13 14 15 16 17 18 19 20 21 22 23 24 25 26 27 28

000
ASUS43 KEAX 201710
RWREAX

WEATHER ROUNDUP FOR EASTERN KANSAS AND NORTHWEST MISSOURI
NATIONAL WEATHER SERVICE KANSAS CITY/PLEASANT HILL MO
1200 PM CDT WED SEP 20 2017

KSZ040-057-103>105-MOZ028-029-037-043-201800-
...KANSAS CITY METROPOLITAN AREA...

CITY           SKY/WX    TMP DP  RH WIND       PRES   REMARKS
K.C. INTL      PTSUNNY   83  72  69 SW15      29.81R
K.C. DOWNTOWN  PTSUNNY   85  73  67 SW16      29.80R HX  91
LEES SUMMIT    PTSUNNY   84  73  69 S17       29.83R HX  90
OLATHE - IXD   CLOUDY    83  72  69 S16       29.82S
OLATHE - OJC   CLOUDY    81  73  76 SW12G21   29.82S
LAWRENCE       PTSUNNY   84  72  67 S13       29.79S

$$

MOZ001>008-011>017-020>025-030>033-038>040-044>046-053-054-201800-
...NORTHERN AND CENTRAL MISSOURI...

CITY           SKY/WX    TMP DP  RH WIND       PRES   REMARKS
ST. JOSEPH     MOSUNNY   83  71  67 S12       29.78S
MOSBY          CLOUDY    82  70  65 S10       29.81S
WARRENSBURG    SUNNY     86  72  62 S15       29.83S HX  92
WHITEMAN AFB   MOSUNNY   86  77  75 SW15      29.83S HX  98
CLINTON        SUNNY     86  75  70 S10G18    29.85F HX  95
SEDALIA        SUNNY     89  74  60 S15G22    29.87S HX  98
WARSAW         NOT AVBL
CHILLICOTHE      N/A     84  73  69 S10       29.82S HX  90
KIRKSVILLE     MOSUNNY   85  71  63 SW14      29.85S HX  90

$$

MOZ041-047>049-056>058-063>065-088>090-097-201800-
...EASTERN AND SOUTHERN MISSOURI...

CITY           SKY/WX    TMP DP  RH WIND       PRES   REMARKS
ST. LOUIS INTL PTSUNNY   89  72  56 SW13      29.92F HX  96
SPIRIT OF STL  MOSUNNY   88  74  63 S8        29.90F HX  96
COLUMBIA       SUNNY     86  72  62 S15       29.89F HX  92
JEFFERSON CITY SUNNY     86  72  62 S9        29.88S HX  92
ROLLA          SUNNY     87  71  58 SW10      29.94S HX  93
OSAGE BEACH    SUNNY     87  73  62 S13       29.90S HX  94
SPRINGFIELD    SUNNY     87  74  64 SW14      29.91S HX  95
BRANSON        MOSUNNY   90  68  48 SW8G16    29.94F HX  93
JOPLIN         MOSUNNY   87  75  67 S22       29.87F HX  96
WEST PLAINS    SUNNY     87  70  56 S10       29.97F HX  92

$$

IAZ060-094-KSZ022-034>040-054-083-096-NEZ052-066-093-201800-
...KANSAS...SOUTHEAST NEBRASKA AND IOWA...

CITY           SKY/WX    TMP DP  RH WIND       PRES   REMARKS
TOPEKA         MOSUNNY   85  71  63 S14G20    29.78S HX  90
MANHATTAN      SUNNY     83  65  54 SW12      29.79R
EMPORIA        MOSUNNY   85  68  56 SW17      29.80S
CHANUTE        PTSUNNY   86  73  65 S18G26    29.83S HX  93
WICHITA        MOSUNNY   84  65  52 W13       29.81R
OMAHA          SUNNY     75  54  47 NW15      29.82R
LINCOLN        SUNNY     77  51  40 N13       29.85R
FALLS CITY     MOSUNNY   84  68  58 SW12      29.77R
LAMONI         PTSUNNY   83  71  67 SW10      29.79S
DES MOINES     PTSUNNY   84  70  62 SW8       29.76R

$$





USA.gov is the U.S. government's official web portal to all federal, state and local government web resources and services.